When you browse on this site, cookies collect data to enhance your experience and personalize the content and advertising you see.
Visit our Privacy Policy to learn more. By continuing to use the site, you agree to this use of cookies and data.
  • In United Kingdom
  • List of Countries
  • For 7 days
  • Water Temperature
  • Satellite Maps
  • Weather Map
  • Weather Widgets
  • user-avatar
    Login

    Hourly Weather Raalte

    Today, 18 April, Thursday

    Time Temperature Precipitation Wind Pressure Humidity
    00:00 +12°C° 0 mm 4 mps 768 mmHg 71%
    01:00 +12°C° 0 mm 4 mps 768 mmHg 71%
    02:00 +12°C° 0 mm 4 mps 768 mmHg 72%
    03:00 +11°C° 0 mm 4 mps 768 mmHg 72%
    04:00 +11°C° 0 mm 4 mps 768 mmHg 73%
    05:00 +10°C° 0 mm 5 mps 769 mmHg 75%
    06:00 +10°C° 0 mm 5 mps 769 mmHg 74%
    07:00 +13°C° 0 mm 5 mps 769 mmHg 69%
    08:00 +15°C° 0 mm 5 mps 769 mmHg 63%
    09:00 +17°C° 0 mm 6 mps 769 mmHg 58%
    10:00 +19°C° 0 mm 6 mps 769 mmHg 54%
    11:00 +20°C° 0 mm 6 mps 769 mmHg 50%
    12:00 +20°C° 0 mm 7 mps 769 mmHg 47%
    13:00 +21°C° 0 mm 7 mps 769 mmHg 47%
    14:00 +21°C° 0 mm 7 mps 769 mmHg 47%
    15:00 +21°C° 0 mm 7 mps 769 mmHg 48%
    16:00 +20°C° 0 mm 6 mps 769 mmHg 52%
    17:00 +17°C° 0 mm 5 mps 769 mmHg 57%
    18:00 +16°C° 0 mm 5 mps 769 mmHg 62%
    19:00 +15°C° 0 mm 5 mps 770 mmHg 61%
    20:00 +14°C° 0 mm 5 mps 770 mmHg 61%
    21:00 +14°C° 0 mm 5 mps 771 mmHg 60%
    22:00 +13°C° 0 mm 4 mps 771 mmHg 62%
    23:00 +12°C° 0 mm 4 mps 771 mmHg 64%

    Tomorrow, 19 April, Friday

    Time Temperature Precipitation Wind Pressure Humidity
    00:00 +12°C° 0 mm 4 mps 771 mmHg 66%
    01:00 +11°C° 0 mm 4 mps 771 mmHg 69%
    02:00 +11°C° 0 mm 4 mps 771 mmHg 72%
    03:00 +10°C° 0 mm 4 mps 771 mmHg 74%
    04:00 +10°C° 0 mm 4 mps 772 mmHg 75%
    05:00 +10°C° 0 mm 4 mps 772 mmHg 75%
    06:00 +11°C° 0 mm 4 mps 772 mmHg 75%
    07:00 +13°C° 0 mm 5 mps 772 mmHg 70%
    08:00 +15°C° 0 mm 5 mps 772 mmHg 64%
    09:00 +17°C° 0 mm 5 mps 772 mmHg 58%
    10:00 +19°C° 0 mm 6 mps 772 mmHg 54%
    11:00 +20°C° 0 mm 6 mps 772 mmHg 50%
    12:00 +22°C° 0 mm 6 mps 772 mmHg 47%
    13:00 +22°C° 0 mm 6 mps 772 mmHg 47%
    14:00 +22°C° 0 mm 6 mps 771 mmHg 47%
    15:00 +22°C° 0 mm 5 mps 771 mmHg 47%
    16:00 +21°C° 0 mm 5 mps 771 mmHg 53%
    17:00 +19°C° 0 mm 4 mps 771 mmHg 58%
    18:00 +18°C° 0 mm 4 mps 771 mmHg 64%
    19:00 +17°C° 0 mm 4 mps 772 mmHg 65%
    20:00 +15°C° 0 mm 4 mps 772 mmHg 66%
    21:00 +14°C° 0 mm 4 mps 773 mmHg 67%
    22:00 +13°C° 0 mm 4 mps 773 mmHg 69%
    23:00 +13°C° 0 mm 3 mps 773 mmHg 70%

    Day after tomorrow, 20 April, Saturday

    Time Temperature Precipitation Wind Pressure Humidity
    00:00 +12°C° 0 mm 3 mps 772 mmHg 72%
    01:00 +11°C° 0 mm 3 mps 772 mmHg 74%
    02:00 +11°C° 0 mm 3 mps 772 mmHg 75%
    03:00 +10°C° 0 mm 3 mps 772 mmHg 77%
    04:00 +11°C° 0 mm 3 mps 772 mmHg 77%
    05:00 +11°C° 0 mm 3 mps 772 mmHg 76%
    06:00 +11°C° 0 mm 3 mps 772 mmHg 76%
    07:00 +13°C° 0 mm 4 mps 772 mmHg 70%
    08:00 +15°C° 0 mm 4 mps 772 mmHg 64%
    09:00 +18°C° 0 mm 4 mps 772 mmHg 58%
    10:00 +19°C° 0 mm 4 mps 772 mmHg 54%
    11:00 +20°C° 0 mm 5 mps 772 mmHg 49%
    12:00 +22°C° 0 mm 5 mps 772 mmHg 45%
    13:00 +22°C° 0 mm 5 mps 771 mmHg 45%
    14:00 +22°C° 0 mm 5 mps 771 mmHg 45%
    15:00 +22°C° 0 mm 5 mps 770 mmHg 45%
    16:00 +20°C° 0 mm 4 mps 770 mmHg 51%
    17:00 +19°C° 0 mm 4 mps 770 mmHg 57%
    18:00 +17°C° 0 mm 4 mps 770 mmHg 63%
    19:00 +15°C° 0 mm 4 mps 770 mmHg 65%
    20:00 +13°C° 0 mm 4 mps 770 mmHg 66%
    21:00 +12°C° 0 mm 4 mps 771 mmHg 68%
    22:00 +11°C° 0 mm 4 mps 770 mmHg 68%
    23:00 +10°C° 0 mm 3 mps 770 mmHg 68%

    21 April, Sunday

    Time Temperature Precipitation Wind Pressure Humidity
    00:00 +9°C° 0 mm 3 mps 770 mmHg 68%
    01:00 +9°C° 0 mm 3 mps 770 mmHg 69%
    02:00 +8°C° 0 mm 3 mps 769 mmHg 69%
    03:00 +8°C° 0 mm 3 mps 769 mmHg 70%
    04:00 +8°C° 0 mm 3 mps 769 mmHg 70%
    05:00 +8°C° 0 mm 3 mps 768 mmHg 71%
    06:00 +9°C° 0 mm 3 mps 768 mmHg 72%
    07:00 +11°C° 0 mm 3 mps 768 mmHg 67%
    08:00 +13°C° 0 mm 3 mps 768 mmHg 61%
    09:00 +17°C° 0 mm 3 mps 768 mmHg 55%
    10:00 +18°C° 0 mm 3 mps 767 mmHg 50%
    11:00 +19°C° 0 mm 3 mps 767 mmHg 45%
    12:00 +20°C° 0 mm 3 mps 766 mmHg 40%
    13:00 +20°C° 0 mm 3 mps 765 mmHg 39%
    14:00 +20°C° 0 mm 3 mps 765 mmHg 38%
    15:00 +20°C° 0 mm 3 mps 764 mmHg 37%
    16:00 +19°C° 0 mm 2 mps 764 mmHg 43%
    17:00 +18°C° 0 mm 2 mps 763 mmHg 49%
    18:00 +16°C° 0 mm 2 mps 763 mmHg 55%
    19:00 +15°C° 0 mm 2 mps 763 mmHg 59%
    20:00 +13°C° 0 mm 3 mps 763 mmHg 64%
    21:00 +11°C° 0 mm 3 mps 763 mmHg 68%
    22:00 +11°C° 0 mm 3 mps 763 mmHg 71%
    23:00 +10°C° 0 mm 3 mps 763 mmHg 74%

    22 April, Monday

    Time Temperature Precipitation Wind Pressure Humidity
    00:00 +10°C° 0 mm 3 mps 762 mmHg 77%
    01:00 +10°C° 0 mm 3 mps 762 mmHg 77%
    02:00 +9°C° 0 mm 3 mps 761 mmHg 77%
    03:00 +9°C° 0 mm 3 mps 761 mmHg 77%
    04:00 +10°C° 0 mm 3 mps 761 mmHg 75%
    05:00 +10°C° 0 mm 3 mps 761 mmHg 73%
    06:00 +10°C° 0 mm 3 mps 760 mmHg 71%
    07:00 +12°C° 0 mm 4 mps 760 mmHg 66%
    08:00 +15°C° 0 mm 4 mps 760 mmHg 61%
    09:00 +18°C° 0 mm 4 mps 760 mmHg 56%
    10:00 +19°C° 0 mm 4 mps 760 mmHg 52%
    11:00 +20°C° 0 mm 5 mps 759 mmHg 48%
    12:00 +21°C° 0 mm 5 mps 759 mmHg 45%
    13:00 +21°C° 0 mm 5 mps 758 mmHg 45%
    14:00 +21°C° 0 mm 5 mps 758 mmHg 45%
    15:00 +21°C° 0 mm 6 mps 757 mmHg 45%
    16:00 +20°C° 0 mm 5 mps 757 mmHg 51%
    17:00 +19°C° 0 mm 5 mps 757 mmHg 56%
    18:00 +16°C° 0 mm 5 mps 757 mmHg 62%
    19:00 +15°C° 0 mm 5 mps 757 mmHg 61%
    20:00 +14°C° 0 mm 5 mps 757 mmHg 61%
    21:00 +13°C° 0 mm 5 mps 758 mmHg 60%
    22:00 +12°C° 0 mm 5 mps 758 mmHg 60%
    23:00 +12°C° 0 mm 5 mps 757 mmHg 60%

    23 April, Tuesday

    Time Temperature Precipitation Wind Pressure Humidity
    00:00 +10°C° 0 mm 5 mps 757 mmHg 60%
    01:00 +9°C° 0 mm 5 mps 757 mmHg 64%
    02:00 +8°C° 0 mm 5 mps 757 mmHg 68%
    03:00 +7°C° 0 mm 4 mps 757 mmHg 72%
    04:00 +7°C° 0 mm 5 mps 757 mmHg 72%
    05:00 +7°C° 0 mm 5 mps 757 mmHg 72%
    06:00 +7°C° 0 mm 5 mps 757 mmHg 72%
    07:00 +9°C° 0 mm 5 mps 756 mmHg 66%
    08:00 +12°C° 0 mm 5 mps 756 mmHg 61%
    09:00 +13°C° 0 mm 5 mps 756 mmHg 55%
    10:00 +14°C° 0 mm 4 mps 756 mmHg 53%
    11:00 +15°C° 0 mm 4 mps 755 mmHg 51%
    12:00 +17°C° 0 mm 4 mps 755 mmHg 49%
    13:00 +18°C° 0 mm 4 mps 755 mmHg 51%
    14:00 +18°C° 0 mm 4 mps 755 mmHg 52%
    15:00 +18°C° 0 mm 4 mps 755 mmHg 54%
    16:00 +17°C° 0 mm 3 mps 755 mmHg 60%
    17:00 +16°C° 0 mm 3 mps 755 mmHg 66%
    18:00 +15°C° 0 mm 2 mps 755 mmHg 72%
    19:00 +13°C° 0 mm 2 mps 755 mmHg 78%
    20:00 +12°C° 0 mm 2 mps 756 mmHg 84%
    21:00 +9°C° 0 mm 2 mps 756 mmHg 91%
    22:00 +9°C° 0 mm 2 mps 757 mmHg 91%
    23:00 +8°C° 0 mm 2 mps 757 mmHg 92%
    Show more